x

Buoy E01 - Central Maine Shelf (44032) Wave Buoy

1:04 - Thu 17th Apr 2014 All times are EDT. -4 hours from GMT.

  • Sig Wave height 3.9ft
  • Peak Period 5s
  • Wind
    16mph, 18mph gusts
  • Sea Temp 39°f
  • Air Temp 34°f
  • Sea Pressure 1043.1mb
  • Buoy E01 - Central Maine Shelf
  • Buoy E01 - Central Maine Shelf

More Historic Weather Station data

Upgrade to MSW Pro to gain access to the past 30 days of data for over 8000 Wavebouys and Weather Stations around the globe.

Join Pro

Comparision Forecast

View Surf forecast
   
jeu. 04/17 1:04 4ft 5s 16 18 mph 1043.1mb 39f 34f
12:04 4ft 5s 20 22 mph 1043.4mb 39f 33f
11:04 5ft 5s 16 20 mph 1043.9mb 39f 33f
10:04 3.5ft 5s 18 25 mph 1043.9mb 39f 32f
9:04 5.5ft 11s 20 22 mph 1043.6mb 39f 32f
8:04 5ft 11s 20 25 mph 1042.9mb 39f 31f
7:04 5ft 11s 18 25 mph 1042.3mb 39f 31f
6:04 5.5ft 11s 16 20 mph 1041.5mb 39f 30f
5:04 4.5ft 11s 16 20 mph 1040.8mb 39f 29f
4:04 5ft 11s 18 22 mph 1039.9mb 39f 30f
3:04 2.5ft 3s 20 25 mph 1038.7mb 39f 30f
2:04 2.5ft 4s 22 27 mph 1038mb 39f 30f
1:04 4ft 11s 18 22 mph 1037.5mb 39f 31f
12:04 4.5ft 11s 20 25 mph 1036.9mb 39f 31f
mer. 04/16 11:04  -   -  18 25 mph 1036mb 39f 33f
10:04 5.5ft 11s 20 25 mph 1034.9mb 39f 34f
9:04 6ft 11s 20 22 mph 1033.9mb 39f 35f
8:04 6ft 11s 18 22 mph 1031.8mb 39f 36f
7:04 6.5ft 11s 18 20 mph 1031.1mb 40f 37f
6:04 6ft 11s 20 22 mph 1030.1mb 40f 37f
5:04 8ft 11s 20 25 mph 1028.7mb 40f 37f
4:04 6ft 11s 18 22 mph 1027.5mb 40f 37f
3:04  -   -  20 25 mph 1026.3mb 40f 36f
2:04  -   -  22 27 mph 1025.1mb 39f 35f
1:04  -   -  20 27 mph 1024mb 39f 34f
12:04 6.5ft 11s 22 29 mph 1022.8mb 39f 33f
11:04 8ft 11s 25 29 mph 1021.5mb 39f 33f
10:04 6.5ft 11s 27 31 mph 1020.6mb 39f 31f
9:04 6.5ft 11s 27 34 mph 1018.7mb 39f 31f
8:04 7ft 11s 22 27 mph 1016.6mb 39f 31f
7:04 7ft 8s 16 31 mph 1013.9mb 39f 31f
6:04 8ft 11s 31 36 mph 1010.3mb 40f 31f
5:04 7ft 8s 27 31 mph 1009.1mb 40f 33f
4:04 6ft 8s 29 34 mph 1007.2mb 40f 36f
3:04 8ft 8s 25 31 mph 1006.7mb 40f 38f
2:04 8ft 8s 25 29 mph 1004.9mb 40f 40f
1:04 9ft 8s 27 34 mph 1002.8mb 40f 42f
12:04 9ft 8s 20 22 mph 1001.1mb 40f 45f
mar. 04/15 11:04 9ft 8s 27 31 mph 1000.7mb 40f 47f
10:04 9ft 8s 27 31 mph 1001.2mb 40f 47f
9:04 9.5ft 8s 25 31 mph 1001.7mb 40f 47f
8:04 10ft 8s 29 36 mph 1002.2mb 40f 47f
7:04 9.5ft 8s 29 34 mph 1002.3mb 40f 47f
6:04 9ft 8s 29 34 mph 1002.6mb 40f 47f
5:04 9ft 6s 29 36 mph 1003.1mb 40f 48f
4:04 9ft 6s 25 29 mph 1003.9mb 40f 47f
3:04 7.5ft 6s 27 31 mph 1004.7mb 40f 47f
2:04 7ft 6s 25 29 mph 1005.5mb 40f 47f
1:04 7ft 6s 25 29 mph 1006.3mb 40f 46f
12:04 7ft 8s 22 27 mph 1007.6mb 40f 46f
11:04 7ft 6s 22 27 mph 1008.7mb 40f 46f
8:04 5.5ft 6s 18 20 mph 1010.7mb 39f 45f
7:04 6.5ft 6s 20 25 mph 1011.1mb 39f 45f
6:04 7ft 6s 18 22 mph 1011.6mb 39f 45f
5:04 6ft 8s 18 20 mph 1011.4mb 39f 45f
4:04 7ft 8s 18 20 mph 1011.1mb 39f 45f
3:04 7ft 6s 18 22 mph 1011.6mb 39f 46f
1:04 8ft 8s 20 22 mph 1011.5mb 40f 46f
12:04 10ft 8s 22 25 mph 1011.7mb 40f 47f
lun. 04/14 11:04 9ft 8s 22 27 mph 1011.4mb 40f 47f
10:04 9ft 6s 25 27 mph 1011.5mb 40f 47f
9:04 7ft 6s 27 31 mph 1011.2mb 40f 48f
8:04 8.5ft 6s 27 31 mph 1010.9mb 39f 47f
7:04 8ft 6s 27 31 mph 1010.9mb 39f 48f
6:04 7.5ft 6s 25 29 mph 1010.9mb 39f 48f
5:04 7.5ft 6s 25 29 mph 1011mb 39f 47f
4:04 7ft 6s 22 27 mph 1011.2mb 39f 47f
3:04 6.5ft 6s 22 27 mph 1011.5mb 39f 47f
2:04 6ft 6s 22 25 mph 1012.2mb 39f 47f
1:04 5ft 5s 18 22 mph 1013mb 39f 46f
12:04 4.5ft 6s 16 20 mph 1013.4mb 39f 45f
11:04 5ft 6s 11 13 mph 1014.1mb 39f 44f
10:04 4.5ft 6s 7
mph
1014.5mb 39f 42f
9:04 4.5ft 6s 4
mph
1014.5mb 39f 42f
8:04 5ft 6s 4
mph
1014.7mb 38f 40f
7:04 4.5ft 5s 4 7 mph 1014.9mb 39f 40f
6:04 4.5ft 6s 4 7 mph 1014.9mb 39f 40f
5:04 4.5ft 6s 4
mph
1015.1mb 39f 40f
4:04 5ft 6s 2 4 mph 1015.2mb 39f 40f
3:04 5ft 6s 7 9 mph 1015.5mb 40f 41f
2:04 5ft 6s 11 13 mph 1015.2mb 40f 42f
1:04 5ft 6s 16 18 mph 1015.4mb 40f 43f
12:04 4.5ft 5s 16 18 mph 1016.1mb 40f 44f
dim. 04/13 11:04 3.5ft 5s 13 16 mph 1016.2mb 40f 43f
10:04 3.5ft 6s 11 13 mph 1017.4mb 40f 42f
9:04 3ft 8s 11 16 mph 1018.1mb 40f 43f
8:04 3.5ft 8s 11
mph
1018.9mb 40f 42f
7:04 3.5ft 8s 13 16 mph 1019.5mb 40f 42f